Regional Weather Roundup
Issued by NWS

Home | Current Version | Previous Version | Text Only | Print | Product List | Glossary On
Versions: 1 2 3 4 5 6 7 8 9 10 11 12 13 14 15 16 17 18 19 20 21 22 23 24 25 26 27 28 29 30 31 32 33 34 35 36 37 38 39 40 41 42 43 44 45 46 47 48 49 50
000
ASUS44 KOUN 291510
RWROK

WEATHER ROUNDUP FOR OKLAHOMA
NATIONAL WEATHER SERVICE NORMAN OK
1000 AM CDT SUN MAY 29 2016

NOTE: "FAIR" INDICATES FEW OR NO CLOUDS BELOW 12,000 FEET WITH NO
      SIGNIFICANT WEATHER AND/OR OBSTRUCTIONS TO VISIBILITY.

OKZ001>007-009>012-014-015-017-291600-
NORTHWEST OKLAHOMA AND THE PANHANDLE

CITY           SKY/WX    TMP DP  RH WIND       PRES   REMARKS
GAGE           CLOUDY    68  61  78 SE12      30.18R
GUYMON         CLOUDY    65  60  84 S7        30.16S THUNDER
ENID/WOODRING  PTSUNNY   79  66  65 SW7       30.12F
$$

OKZ016-021>023-033>039-044-045-291600-
SOUTHWEST OKLAHOMA

CITY           SKY/WX    TMP DP  RH WIND       PRES   REMARKS
LAWTON/REGL    SUNNY     77  60  55 NE5       30.13R
LAWTON/FT SILL SUNNY     76  62  62 N3        30.12R
CLINTON        SUNNY     76  55  48 S6        30.18R
HOBART         SUNNY     78  57  48 SW6       30.16R
ALTUS AFB      SUNNY     76  55  47 S8        30.13R
$$

OKZ018>020-024>031-291600-
CENTRAL OKLAHOMA

CITY           SKY/WX    TMP DP  RH WIND       PRES   REMARKS
OKLAHOMA CITY  MOSUNNY   77  60  55 W8        30.16R
OKC/WILEY POST SUNNY     78  60  53 W9        30.15R
OKC/TINKER AFB MOSUNNY   76  59  55 W7        30.15R
STILLWATER     MOSUNNY   77  70  79 SW7       30.14S
GUTHRIE        SUNNY     80  64  58 W10       30.14S
$$

OKZ008-013-054>072-291600-
NORTHEAST OKLAHOMA

CITY           SKY/WX    TMP DP  RH WIND       PRES   REMARKS
TULSA          PTSUNNY   79  72  79 NW3       30.11S
TULSA/JONES    CLOUDY    78  69  73 CALM      30.12R
PONCA CITY     PTSUNNY   77  70  79 SW6       30.13R
BARTLESVILLE   CLOUDY    79  71  76 SW5       30.14R
MUSKOGEE       CLOUDY    74  70  87 SE9       30.14R
$$

OKZ032-040>043-046>053-073>077-291600-
SOUTH CENTRAL/SOUTHEAST OKLAHOMA

CITY           SKY/WX    TMP DP  RH WIND       PRES   REMARKS
ARDMORE/DWNTWN CLOUDY    72  68  88 NE8       30.11F
MCALESTER      CLOUDY    77  71  82 S5        30.13R
$$





USA.gov is the U.S. government's official web portal to all federal, state and local government web resources and services.